ACA783 KSFO-KSAN

Flight info

Callsign ACA783
Flight time N/A
Altitude 37000
Route WESLA5 YYUNG LAX COMIX2
Aircraft A321/M-SDE3FGHIRWY/LB1

Departure

Time 2026-05-05 00:00
Airport San Francisco International Airport (KSFO)

Arrival

Time N/A
Airport San Diego International Airport (KSAN)
Time Latitude Longitude Altitude Speed Heading
2026-05-04 23:33 37.62150 -122.38936 16 ft 0 kts 174°
2026-05-04 23:33 37.62118 -122.38836 16 ft 0 kts 208°
2026-05-04 23:50 37.62123 -122.38833 16 ft 3 kts 208°
2026-05-04 23:50 37.62146 -122.38818 16 ft 4 kts 207°
2026-05-04 23:50 37.62170 -122.38802 15 ft 4 kts 207°
2026-05-04 23:50 37.62191 -122.38788 16 ft 1 kts 209°
2026-05-04 23:54 37.62182 -122.38780 14 ft 4 kts 132°
2026-05-04 23:55 37.62163 -122.38736 15 ft 7 kts 114°
2026-05-04 23:55 37.62140 -122.38659 17 ft 11 kts 109°
2026-05-04 23:55 37.61985 -122.38269 23 ft 34 kts 113°
2026-05-04 23:56 37.61942 -122.38139 22 ft 8 kts 116°
2026-05-04 23:56 37.61911 -122.38060 22 ft 18 kts 119°
2026-05-04 23:56 37.61828 -122.37870 19 ft 17 kts 112°
2026-05-04 23:56 37.61799 -122.37771 18 ft 11 kts 109°
2026-05-04 23:57 37.61763 -122.37653 20 ft 26 kts 113°
2026-05-04 23:57 37.61657 -122.37342 23 ft 44 kts 117°
2026-05-04 23:57 37.61506 -122.37005 24 ft 43 kts 124°
2026-05-04 23:57 37.61332 -122.36703 21 ft 43 kts 122°
2026-05-04 23:58 37.61190 -122.36367 17 ft 42 kts 116°
2026-05-04 23:58 37.61113 -122.36164 18 ft 5 kts 115°
2026-05-04 23:58 37.61101 -122.36124 18 ft 8 kts 112°
2026-05-04 23:58 37.61067 -122.36004 20 ft 18 kts 101°
2026-05-04 23:59 37.61129 -122.35894 20 ft 16 kts
2026-05-04 23:59 37.61212 -122.35962 17 ft 16 kts 297°
2026-05-04 23:59 37.61316 -122.36197 16 ft 60 kts 299°
2026-05-04 23:59 37.61620 -122.36889 23 ft 118 kts 298°
2026-05-05 00:00 37.62080 -122.37979 97 ft 155 kts 298°
2026-05-05 00:00 37.62424 -122.38748 601 ft 143 kts 299°
2026-05-05 00:00 37.63113 -122.40142 1394 ft 144 kts 301°
2026-05-05 00:00 37.63686 -122.41173 1940 ft 146 kts 304°
2026-05-05 00:01 37.64247 -122.42211 2429 ft 151 kts 297°
2026-05-05 00:01 37.64738 -122.43441 2673 ft 173 kts 294°
2026-05-05 00:01 37.65293 -122.44883 2950 ft 194 kts 294°
2026-05-05 00:01 37.65923 -122.46484 3176 ft 216 kts 295°
2026-05-05 00:02 37.66640 -122.48276 3519 ft 232 kts 293°
2026-05-05 00:02 37.67010 -122.50335 3923 ft 252 kts 266°
2026-05-05 00:02 37.66514 -122.52458 4711 ft 259 kts 236°
2026-05-05 00:02 37.65196 -122.53994 5512 ft 263 kts 204°
2026-05-05 00:03 37.63429 -122.54459 6271 ft 266 kts 180°
2026-05-05 00:03 37.61541 -122.54504 7074 ft 270 kts 179°
2026-05-05 00:03 37.59705 -122.54546 7783 ft 276 kts 180°
2026-05-05 00:03 37.57729 -122.54596 8554 ft 281 kts 180°
2026-05-05 00:04 37.55764 -122.54651 9290 ft 287 kts 180°
2026-05-05 00:04 37.53726 -122.54710 10033 ft 292 kts 181°
2026-05-05 00:04 37.51680 -122.54775 10425 ft 309 kts 181°
2026-05-05 00:04 37.49444 -122.54847 10637 ft 333 kts 181°
2026-05-05 00:05 37.47050 -122.54924 10855 ft 356 kts 181°
2026-05-05 00:05 37.44504 -122.55005 11196 ft 372 kts 181°
2026-05-05 00:05 37.41924 -122.55088 11823 ft 378 kts 181°
2026-05-05 00:05 37.39259 -122.55177 12477 ft 382 kts 181°
2026-05-05 00:06 37.36589 -122.55264 13182 ft 385 kts 181°
2026-05-05 00:06 37.33888 -122.55351 13866 ft 389 kts 181°
2026-05-05 00:06 37.31201 -122.55437 14453 ft 393 kts 180°
2026-05-05 00:06 37.28449 -122.55526 15054 ft 396 kts 180°
2026-05-05 00:07 37.25680 -122.55615 15648 ft 399 kts 180°
2026-05-05 00:07 37.22908 -122.55704 16271 ft 402 kts 180°
2026-05-05 00:07 37.20102 -122.55794 16880 ft 405 kts 180°
2026-05-05 00:07 37.17263 -122.55885 17448 ft 409 kts 180°
2026-05-05 00:08 37.14395 -122.55979 18001 ft 413 kts 180°
2026-05-05 00:08 37.11508 -122.56075 18527 ft 416 kts 180°
2026-05-05 00:08 37.08600 -122.56170 18986 ft 420 kts 179°
2026-05-05 00:08 37.05667 -122.56261 19442 ft 423 kts 179°
2026-05-05 00:09 37.02743 -122.56039 19864 ft 424 kts 169°
2026-05-05 00:09 36.99858 -122.55208 20300 ft 425 kts 159°
2026-05-05 00:09 36.97128 -122.53803 20745 ft 424 kts 149°
2026-05-05 00:09 36.94587 -122.51977 21199 ft 426 kts 146°
2026-05-05 00:10 36.92006 -122.50073 21684 ft 429 kts 146°
2026-05-05 00:10 36.89481 -122.48223 22181 ft 431 kts 146°
2026-05-05 00:10 36.86816 -122.46274 22646 ft 434 kts 145°